Regional Weather Roundup
Issued by NWS

Home | Current Version | Previous Version | Text Only | Print | Product List | Glossary On
Versions: 1 2 3 4 5 6 7 8 9 10 11 12 13 14 15 16 17 18 19 20 21 22 23 24 25 26 27 28 29 30 31 32 33 34 35 36 37 38 39 40 41 42 43 44 45 46 47 48 49 50
000
ASUS43 KDTX 040610
RWRMI
MICHIGAN HOURLY REGIONAL WEATHER ROUNDUP
NATIONAL WEATHER SERVICE DETROIT/PONTIAC MI
100 AM EST WED MAR 04 2015

NOTE: "FAIR" INDICATES FEW OR NO CLOUDS BELOW 12,000 FEET WITH NO
SIGNIFICANT WEATHER AND/OR OBSTRUCTION TO VISIBILITY.

MIZ047>049-052>055-059>063-066>070-074>076-081>083-040700-
SOUTHEAST LOWER MICHIGAN

CITY           SKY/WX    TMP DP  RH WIND       PRES   REMARKS
ADRIAN         CLOUDY    34  27  75 NW9G18    29.81R WCI  27
6HR MIN TEMP:  34; 6HR MAX TEMP:  37;

ALMA           CLOUDY    28  23  80 W9        29.77S WCI  19
ANN ARBOR      CLOUDY    33  26  75 NW9       29.78R WCI  25
BAD AXE        MOCLDY    28  22  80 W13       29.73R WCI  17
CARO           CLOUDY    29  23  79 W13       29.75R WCI  18
DETROIT CITY   CLOUDY    36  26  67 NW8       29.78R WCI  30
6HR MIN TEMP:  35; 6HR MAX TEMP:  38;

DETROIT        CLOUDY    35  26  69 W12G18    29.79R WCI  27
6HR MIN TEMP:  35; 6HR MAX TEMP:  37;

FLINT          CLOUDY    31  22  69 W16       29.77R WCI  20
6HR MIN TEMP:  31; 6HR MAX TEMP:  36;

GROSSE ILE     CLOUDY    36  27  69 W6        29.78R WCI  31
HILLSDALE      CLOUDY    33  29  85 NW13G18   29.78R WCI  23
6HR MIN TEMP:  33; 6HR MAX TEMP:  35;

HOWELL         CLOUDY    30  24  77 W13G20    29.77R WCI  20
6HR MIN TEMP:  30; 6HR MAX TEMP:  33;


CITY           SKY/WX    TMP DP  RH WIND       PRES   REMARKS
JACKSON        CLOUDY    31  23  72 W10G24    29.78R WCI  22
6HR MIN TEMP:  31; 6HR MAX TEMP:  34;

LAMBERTVILLE   CLOUDY    36  30  80 W5        29.81S WCI  32
LANSING        CLOUDY    29  22  75 NW14      29.78S WCI  18
6HR MIN TEMP:  29; 6HR MAX TEMP:  33;

LAPEER         CLOUDY    30  22  73 W15G21    29.76R WCI  19
MASON          CLOUDY    30  24  77 W12       29.78S WCI  20
MONROE         CLOUDY    36  28  75 W10       29.79R WCI  28
MT. CLEMENS    CLOUDY    33  24  67 W17G26    29.75R WCI  22
6HR MIN TEMP:  33; 6HR MAX TEMP:  36;

PONTIAC        CLOUDY    30  22  72 W18       29.75R WCI  18
6HR MIN TEMP:  30; 6HR MAX TEMP:  34;

PORT HOPE        N/A     28  19  69 W10       29.71R WCI  19
6HR MIN TEMP:  28; 6HR MAX TEMP:  31;

PORT HURON     CLOUDY    32  25  74 W5        29.76R WCI  27
TRI CITIES     MOCLDY    30  20  66 W13       29.76R WCI  20
6HR MIN TEMP:  30; 6HR MAX TEMP:  34;

TROY           CLOUDY    34  26  71 NW9       29.79R WCI  27
SAGINAW HB     CLOUDY    30  23  74 W14       29.76R WCI  20
$$
MIZ043>046-050>051-056>058-064>065-071>073-077>080-040700-
SOUTHWEST LOWER MICHIGAN

CITY           SKY/WX    TMP DP  RH WIND       PRES   REMARKS
BATTLE CREEK   CLOUDY    31  24  75 NW10      29.80S WCI  22
6HR MIN TEMP:  31; 6HR MAX TEMP:  35;

BENTON HARBOR  CLOUDY    30  24  78 W8        29.85R WCI  22
6HR MIN TEMP:  30; 6HR MAX TEMP:  33;

BIG RAPIDS     CLOUDY    27  24  89 W3        29.74S
6HR MIN TEMP:  25; 6HR MAX TEMP:  30;

COLDWATER      CLOUDY    32  24  73 NW9       29.79R WCI  24
6HR MIN TEMP:  32; 6HR MAX TEMP:  34;

FREMONT        CLOUDY    29  23  78 W10       29.77S WCI  19
HOLLAND        CLOUDY    31  23  72 W7        29.81S WCI  24
6HR MIN TEMP:  31; 6HR MAX TEMP:  34;

GRAND RAPIDS   CLOUDY    29  22  75 W10       29.79S WCI  20
6HR MIN TEMP:  29; 6HR MAX TEMP:  33;

IONIA          CLOUDY    30  24  77 W14       29.78R WCI  19
KALAMAZOO        N/A    N/A N/A N/A MISG      29.81S
LUDINGTON      CLOUDY    31  20  63 W10G17    29.78R WCI  22
6HR MIN TEMP:  31; 6HR MAX TEMP:  31;

MARSHALL       CLOUDY    30  24  78 W14       29.78S WCI  19
MOUNT PLEASANT MOCLDY    27  22  82 SW8       29.75S WCI  18
6HR MIN TEMP:  26; 6HR MAX TEMP:  32;

MUSKEGON       CLOUDY    31  22  69 W14       29.81R WCI  21
6HR MIN TEMP:  30; 6HR MAX TEMP:  32;

SOUTH HAVEN    CLOUDY    32  25  74 NW7       29.83S WCI  26
$$
MIZ016>042-040700-
NORTHERN LOWER MICHIGAN

CITY           SKY/WX    TMP DP  RH WIND       PRES   REMARKS
ALPENA         MOCLDY    24  19  81 W6        29.65R WCI  17
6HR MIN TEMP:  24; 6HR MAX TEMP:  28;

BEAVER ISLAND  FLURRIES  23  19  83 NW10G22   29.70R WCI  12
6HR MIN TEMP:  23; 6HR MAX TEMP:  26;

BELLAIRE       CLOUDY    26  22  84 SW3       29.70R
6HR MIN TEMP:  25; 6HR MAX TEMP:  29;

CADILLAC       FLURRIES  24  22  89 W6        29.69R WCI  17
CHARLEVOIX     PTCLDY    24  19  81 W18       29.71R WCI  10
FRANKFORT      CLOUDY    29  21  71 W14G20    29.74R WCI  19
GAYLORD        LGT SNOW  24  22  91 W14       29.63R FOG     WCI  12
6HR MIN TEMP:  21; 6HR MAX TEMP:  25; 6HR PCP: TRACE;

GRAYLING       FLURRIES  26  23  91 W8        29.67R WCI  17
6HR MIN TEMP:  25; 6HR MAX TEMP:  28;

HARBOR SPRINGS CLOUDY    25  19  79 W9G17     29.66R WCI  16
HOUGHTON LAKE  CLOUDY    25  20  81 W12       29.68R WCI  14
6HR MIN TEMP:  22; 6HR MAX TEMP:  28;

MANISTEE       MOCLDY    28  18  64 W15       29.76R WCI  17
OSCODA         CLOUDY    25  22  89 SW9       29.70R WCI  15
PELLSTON       FLURRIES  27  19  72 W18G33    29.66R WCI  14
6HR MIN TEMP:  24; 6HR MAX TEMP:  27; 6HR PCP: TRACE;

ROGERS CITY    PTCLDY    24  21  87 W7        29.64R WCI  16
TRAVERSE CITY  CLEAR     21  19  92 CALM      29.71R FOG
6HR MIN TEMP:  21; 6HR MAX TEMP:  29; 6HR PCP: TRACE;

$$
MIZ007>008-015-040700-
EASTERN UPPER MICHIGAN

CITY           SKY/WX    TMP DP  RH WIND       PRES   REMARKS
KINROSS        MOCLDY    23  19  86 NW22G32   29.61R WCI   8
6HR MIN TEMP:  19; 6HR MAX TEMP:  25;

MACKINAC ISLAN CLOUDY    23  18  80 W16G24    29.64R WCI  10
NEWBERRY       CLOUDY    19  12  76 W21G30    29.66R WCI   2
6HR MIN TEMP:  14; 6HR MAX TEMP:  23;

S. S. MARIE    LGT SNOW  20  13  74 NW18G30   29.62R WCI   5
6HR MIN TEMP:  20; 6HR MAX TEMP:  25; 6HR PCP:  0.01;

MUNISING         N/A     21  11  65 N13G22    29.72R WCI   9
6HR MIN TEMP:  21; 6HR MAX TEMP:  28;

$$
MIZ004>006-011>014-085-040700-
CENTRAL UPPER MICHIGAN

CITY           SKY/WX    TMP DP  RH WIND       PRES   REMARKS
MANISTIQUE     CLOUDY    21  14  75 NW9       29.69R WCI  11
ESCANABA       CLEAR     19   9  63 NW7       29.74R WCI  10
6HR MIN TEMP:  19; 6HR MAX TEMP:  27;

MENOMINEE      CLEAR     21  10  63 NW7       29.75R WCI  13
6HR MIN TEMP:  21; 6HR MAX TEMP:  28;

SAWYER-GWINN   PTCLDY    16   7  67 NW14G22   29.68R WCI   2
6HR MIN TEMP:  16; 6HR MAX TEMP:  25;

$$
MIZ001>003-009>011-084-040700-
WESTERN UPPER MICHIGAN

CITY           SKY/WX    TMP DP  RH WIND       PRES   REMARKS
IRON MOUNTAIN  CLOUDY    19   8  62 W13       29.70R WCI   6
6HR MIN TEMP:  19; 6HR MAX TEMP:  27; 6HR PCP: TRACE;

HOUGHTON       MIX PCPN  10   2  69 NW26G38   29.69R WCI -11
6HR MIN TEMP:  10; 6HR MAX TEMP:  16; 6HR PCP:  0.03;

COPPER HARBOR    N/A     12   2  64 N20G33    29.71R WCI  -6
6HR MIN TEMP:  12; 6HR MAX TEMP:  26; 6HR PCP:  0.01;

IRONWOOD       CLOUDY    10   1  67 W15G24    29.77S WCI  -6
6HR MIN TEMP:  10; 6HR MAX TEMP:  21;

$$

ABBREVIATIONS USED IN REMARKS
   TC - TEMPERATURE IN CELSIUS
  WCI - WIND CHILL INDEX
   HX - HEAT INDEX
  VSB - VISIBILITY



USA.gov is the U.S. government's official web portal to all federal, state and local government web resources and services.